Date,TemperatureHighF,TemperatureAvgF,TemperatureLowF,DewpointHighF,DewpointAvgF,DewpointLowF,HumidityHigh,HumidityAvg,HumidityLow,PressureMaxIn,PressureMinIn,WindSpeedMaxMPH,WindSpeedAvgMPH,GustSpeedMaxMPH,PrecipitationSumIn
2013-3-1,37,26,17,24,18,14,91,74,53,0.00,40.00,17,5,24,0.01
2013-3-2,48,34,24,23,20,17,78,56,37,0.00,40.00,13,6,21,0.01
2013-3-3,46,35,29,29,21,14,97,60,36,0.00,40.00,18,8,31,0.00
2013-3-4,37,26,12,29,19,2,97,78,50,0.00,40.00,23,11,47,0.18
2013-3-5,46,24,7,9,2,-4,63,42,21,0.00,40.00,12,7,16,0.01
2013-3-6,53,38,25,18,10,4,43,32,18,0.00,40.00,19,10,35,0.01
2013-3-7,53,43,34,14,8,2,34,24,12,0.00,40.00,16,8,29,0.00
2013-3-8,49,38,28,28,16,7,92,45,25,0.00,40.00,11,7,20,0.00
2013-3-9,29,25,19,27,22,12,95,88,80,0.00,40.00,19,8,30,0.00
2013-3-10,35,25,14,17,12,5,81,60,44,0.00,40.00,12,6,22,0.25
2013-3-11,43,28,17,20,15,10,73,58,38,0.00,40.00,12,8,21,0.02
2013-3-12,47,35,27,27,22,18,87,58,35,0.00,40.00,14,7,25,0.00
2013-3-13,51,36,27,24,12,-100,64,44,23,0.00,40.00,10,6,17,0.00
2013-3-14,56,41,30,21,17,13,52,38,24,0.00,40.00,12,7,18,0.00
2013-3-15,59,44,35,24,19,16,47,36,22,0.00,40.00,13,9,20,0.00
2013-3-16,44,38,32,30,21,-100,82,60,36,0.00,40.00,16,8,31,0.03
2013-3-17,38,32,27,31,21,5,94,67,32,0.00,40.00,26,13,47,0.02
2013-3-18,37,29,21,12,7,4,52,41,31,0.00,40.00,20,14,36,0.02
2013-3-19,40,32,26,10,0,-16,47,29,12,0.00,40.00,20,10,31,0.00
2013-3-20,44,32,20,25,7,-11,71,38,19,0.00,40.00,13,9,31,0.00
2013-3-21,33,29,22,31,25,15,96,84,67,0.00,40.00,29,10,47,0.22
2013-3-22,36,25,17,19,13,7,85,64,29,0.00,40.00,22,8,33,0.01
2013-3-23,26,16,9,12,5,-2,87,64,39,0.00,40.00,18,10,30,0.02
2013-3-24,23,12,4,7,0,-6,78,60,40,0.00,40.00,24,8,36,0.01
2013-3-25,34,17,2,4,-4,-10,59,42,22,0.00,40.00,12,8,19,0.00
2013-3-26,52,32,15,18,9,-1,49,39,24,0.00,40.00,16,9,25,0.00
2013-3-27,53,40,30,24,20,15,68,49,23,0.00,40.00,12,7,21,0.00
2013-3-28,53,48,41,23,18,15,39,31,26,0.00,40.00,11,5,23,0.00
2013-3-29,55,44,36,27,22,15,68,43,30,0.00,40.00,13,8,27,0.00
2013-3-30,51,41,32,28,23,16,77,52,26,0.00,40.00,17,10,29,0.00
2013-3-31,56,43,29,23,18,13,60,39,20,0.00,40.00,12,7,22,0.00